Rovaniemi (Finland)  www.meteorete.it

situazione meteo Attuale :07:04:47
Temperatura : 8.4
Umidita :80.2 %
Pressione :1011.5 hPa
Vel vento :5.7 Km
Direz. :N
Precip.(mm.):0.0
   

Condizioni Meteo per: Rovaniemi, Finland

aggiornamento precedente: 23.05.2017 02:14
prossimo aggiornamento: 23.05.2017 10:00
Latitude: 66.5° N
Longitude: 25.72° E
Altitude: 102 m

hPa
mm °C
    Temperatura Precipitazioni Pressione vento Umidità Nuvoloso Nebbia
 02:52     23:35 OGGI
09:00   1011.5 hPa 5.7 m/s 80% 39%
11:00   1012.9 hPa 5.5 m/s 66% 67%
13:00   1013.9 hPa 5.2 m/s 64% 63%
15:00   1014.6 hPa 4.6 m/s 62% 77%
17:00   1014.9 hPa 3.8 m/s 63% 49%
19:00   1015.1 hPa 3.4 m/s 61% 29%
21:00   1015.4 hPa 1.9 m/s 71% 42%
23:00   1015.8 hPa 0.5 m/s 79% 16%
 02:48     23:39 DOMANI
01:00   1016.3 hPa 0.4 m/s 86% 35%
03:00   1016.3 hPa 0.8 m/s 86% 53%
05:00   1016.2 hPa 0.7 m/s 84% 90%
07:00   1015.6 hPa 1.1 m/s 82% 90%
09:00   1014.8 hPa 3.4 m/s 74% 99%
11:00   1014.5 hPa 3.7 m/s 76% 100%
13:00   1013.6 hPa 4.0 m/s 76% 96%
15:00   1012.6 hPa 5.4 m/s 71% 92%
17:00   1010.9 hPa 5.6 m/s 66% 35%
19:00   1009.8 hPa 4.1 m/s 69% 84%
21:00   1008.8 hPa 3.2 m/s 81% 94%
23:00   1007.9 hPa 2.9 m/s 86% 100%
 02:43     23:44 Giovedi 25.05.2017
01:00   1007.1 hPa 2.9 m/s 90% 100%
03:00 0.5 mm 1006.4 hPa 1.8 m/s 96% 100%
05:00   1006.1 hPa 1.7 m/s 97% 100% 1%
07:00   1006.2 hPa 3.2 m/s 94% 100%
09:00   1006.4 hPa 4.0 m/s 87% 100%
11:00   1006.7 hPa 3.6 m/s 80% 90%
13:00   1006.7 hPa 2.8 m/s 70% 82%
15:00   1006.3 hPa 2.8 m/s 69% 96%
17:00   1006.1 hPa 1.8 m/s 79% 50%
19:00   1006.3 hPa 2.6 m/s 85% 57%
21:00 0.4 mm 1007.3 hPa 1.8 m/s 87% 13%
 02:38     23:49 Venerdi 26.05.2017
09:00   1015.9 hPa 4.2 m/s 53% 9%
15:00   1017.5 hPa 4.3 m/s 36% 100%
21:00   1018.9 hPa 2.5 m/s 59% 99%
 02:33     23:55 Sabato 27.05.2017
03:00   1021.0 hPa 2.5 m/s 80% 95%
09:00   1022.8 hPa 1.8 m/s 47% 0%
15:00   1022.5 hPa 2.1 m/s 36% 100%
21:00   1021.6 hPa 0.5 m/s 53% 59%
 02:28     00:00 Domenica 28.05.2017
03:00   1020.5 hPa 2.7 m/s 64% 99%
09:00   1017.8 hPa 2.1 m/s 38% 95%
15:00   1014.2 hPa 2.8 m/s 35% 100%
21:00   1014.0 hPa 0.6 m/s 64% 100%
 02:23     00:05 Lunedi 29.05.2017
03:00   1015.4 hPa 0.4 m/s 82% 100%
09:00 0.9 mm 1015.9 hPa 2.8 m/s 87% 100%
15:00   1015.8 hPa 3.9 m/s 72% 99%
21:00 0.8 mm 1014.2 hPa 1.9 m/s 86% 100%
 02:18     00:11 Martedi 30.05.2017
03:00 1.3 mm 1011.1 hPa 2.2 m/s 100% 100%
09:00 2.0 mm 1007.7 hPa 3.0 m/s 100% 100%
15:00 3.2 mm 1005.6 hPa 3.2 m/s 98% 100%
21:00 5.1 mm 1004.7 hPa 3.0 m/s 100% 100%
 02:12     00:17 Mercoledi 31.05.2017
03:00 2.3 mm 1006.5 hPa 2.9 m/s 100% 100%
09:00 0.8 mm 1010.0 hPa 2.8 m/s 99% 100%
15:00 0.8 mm 1013.8 hPa 2.9 m/s 86% 100%
21:00   1015.6 hPa 2.3 m/s 80% 100%
 02:06     00:23 Giovedi 01.06.2017
03:00   1019.0 hPa 3.2 m/s 92% 74%
09:00   1021.2 hPa 3.9 m/s 48% 64%
15:00   1021.8 hPa 3.3 m/s 41% 93%